Vorticity
8 8 8 7 13 3 -4 19 23 13 21 1 5 12 5 -5 3 4 8 14 7 8 9 5 3 5 5 4 8 10 8 13 9 9 10 10 18 19 9 5 5 9 6 7
9 9 16 14 10 -0 21 35 4 3 -1 50 7 5 22 -2 9 9 5 6 16 13 10 8 11 11 10 8 10 10 7 11 8 9 9 7 11 7 5 6 4 4 5 7
8 4 19 -3 9 2 11 -5 12 21 6 16 25 1 28 10 14 2 -6 6 9 8 5 12 10 12 6 8 12 11 11 10 8 6 10 7 4 6 6 5 4 5 6 6
12 12 14 3 10 23 1 -6 -4 4 3 20 4 -2 14 10 -11 32 48 9 6 9 9 0 6 12 11 8 6 8 17 8 9 4 6 6 2 3 1 3 2 12 6 7
4 8 -1 26 10 8 -3 9 -6 26 3 -16 6 14 14 22 -9 15 72 18 9 8 9 11 10 6 10 15 10 6 15 15 9 7 6 6 5 7 5 5 10 -5 15 7
19 5 11 23 28 9 3 27 12 8 6 84 12 40 7 -0 18 15 14 10 16 18 7 16 13 13 19 2 9 10 14 17 10 12 8 8 7 6 5 7 8 10 -5 21
-0 -5 -7 -22 12 25 5 16 -0 -4 8 -13 1 -1 7 11 -9 21 6 14 12 13 7 4 9 14 14 8 10 10 9 19 14 4 5 4 4 5 10 4 6 5 3 6
20 3 -14 25 -4 44 1 -6 8 -15 17 -18 40 28 9 -6 11 16 6 4 7 18 9 7 14 1 1 14 8 5 11 9 14 12 11 10 12 13 8 9 7 5 3 8
30 1 5 18 11 38 22 13 -8 1 -5 35 17 9 18 8 6 22 12 8 7 16 9 19 10 3 6 9 10 7 8 11 10 11 12 13 10 9 10 11 12 14 15 14
3 10 11 -8 -0 -0 38 18 17 25 6 -10 -4 4 -12 15 6 57 16 5 8 11 11 15 18 7 7 8 10 6 11 8 14 10 11 14 13 11 8 8 10 9 11 18
11 28 5 2 11 4 14 -43 -4 0 9 -9 21 -3 7 -4 -2 -11 9 18 6 7 8 14 14 11 15 16 14 11 9 8 9 12 12 10 8 7 6 5 7 8 11 11
3 5 24 3 3 -3 2 6 1 -6 19 17 7 6 1 8 2 84 -10 20 19 6 9 14 11 7 7 6 9 8 14 11 7 5 5 6 11 12 11 9 8 8 8 8
4 -0 13 3 -1 -8 15 9 5 4 9 -5 -5 -5 12 6 28 5 -21 -8 19 15 12 5 6 4 4 7 5 6 6 7 6 9 11 12 10 7 6 6 5 5 5 7
-1 37 4 11 -6 21 -1 8 -0 5 5 4 22 17 8 -1 7 8 -23 -52 44 10 8 -3 11 6 2 2 6 13 13 11 11 9 6 5 5 5 5 4 5 6 7 7
10 12 19 6 -7 -2 6 19 25 -2 12 3 -12 7 2 14 -10 1 12 6 49 16 18 11 12 9 6 15 14 8 6 7 9 10 12 12 12 11 10 13 14 11 10 9
6 19 9 43 -2 -4 -7 -12 -17 51 8 19 -6 10 -4 -8 15 6 6 -2 9 5 16 4 13 12 13 11 11 7 10 8 6 6 7 9 9 10 11 12 13 11 10 10
16 2 6 15 40 4 7 5 -1 -12 -1 60 -4 9 -4 -12 7 6 -14 26 26 8 2 2 7 9 11 10 11 9 6 5 5 4 3 3 5 6 6 7 9 11 13 14
4 3 2 6 4 13 12 21 -5 20 31 -1 47 52 11 5 5 -7 2 31 43 -1 2 6 7 6 5 5 5 6 7 6 6 7 6 6 6 7 7 7 5 6 8 11
7 7 6 8 6 10 6 8 11 38 -13 18 -17 15 8 10 -7 6 -2 22 -37 78 7 8 4 5 5 8 8 7 8 10 8 7 7 8 3 3 7 7 8 9 5 13
16 12 6 7 6 11 7 6 6 10 9 -6 -2 8 17 17 22 -17 -20 17 16 5 25 13 2 8 6 5 6 5 1 7 14 6 6 11 16 13 9 10 9 6 6 6
8 5 6 12 19 18 14 7 7 10 3 9 21 12 -0 5 1 22 14 9 15 -13 17 38 -8 4 8 9 6 5 9 3 12 14 13 11 12 4 -22 4 15 11 12 3
15 15 14 11 8 5 13 14 11 -1 17 2 -8 20 14 6 -2 10 1 20 21 1 42 6 -19 -2 -1 5 4 7 9 16 7 8 7 2 -3 -9 10 10 9 8 11 10
12 15 17 24 18 15 5 -3 17 12 4 2 -72 45 19 -3 13 5 15 -12 16 4 25 0 -30 1 1 1 0 2 6 7 4 6 7 6 7 9 0 16 9 7 10 10
11 17 17 15 17 17 16 28 5 -12 9 22 -13 13 -5 10 4 -4 18 10 7 14 18 14 5 -3 5 7 3 5 7 -1 3 8 7 8 7 9 10 2 9 10 9 11
15 12 8 9 8 10 12 15 17 16 29 -7 -25 29 14 25 19 11 -7 30 11 7 8 8 5 7 5 8 -0 5 0 5 7 7 13 11 6 6 11 3 5 14 11 9
9 7 10 16 15 17 19 14 17 23 25 11 21 3 9 -16 34 3 6 -9 11 4 5 8 1 6 7 0 6 7 6 5 7 11 8 4 13 10 10 5 15 15 13 8
Height
5899 5899 5898 5897 5894 5894 5897 5897 5896 5896 5896 5894 5891 5890 5890 5890 5889 5888 5890 5889 5889 5891 5893 5893 5895 5898 5898 5899 5900 5901 5901 5902 5904 5906 5906 5907 5907 5909 5912 5914 5916 5918 5923 5925
5898 5896 5895 5894 5894 5896 5898 5896 5895 5895 5895 5891 5889 5887 5885 5890 5878 5882 5885 5884 5888 5888 5889 5893 5895 5895 5897 5898 5899 5899 5899 5900 5903 5904 5906 5907 5909 5909 5911 5913 5916 5917 5921 5925
5894 5894 5891 5891 5895 5895 5896 5894 5893 5893 5891 5890 5888 5889 5885 5885 5884 5881 5885 5884 5883 5886 5886 5888 5891 5894 5892 5895 5897 5897 5898 5899 5901 5903 5905 5906 5908 5910 5911 5913 5916 5917 5919 5921
5892 5890 5889 5892 5893 5893 5893 5895 5895 5892 5888 5883 5884 5888 5887 5882 5881 5878 5881 5880 5880 5883 5886 5886 5887 5891 5891 5892 5894 5895 5897 5897 5900 5901 5904 5905 5907 5910 5912 5915 5915 5916 5918 5918
5889 5888 5888 5890 5890 5890 5891 5892 5892 5887 5886 5883 5884 5886 5886 5883 5883 5880 5878 5881 5884 5882 5885 5886 5887 5888 5891 5890 5892 5892 5894 5895 5897 5899 5902 5904 5905 5908 5910 5913 5914 5915 5916 5916
5887 5887 5888 5889 5889 5888 5889 5889 5890 5887 5888 5879 5884 5881 5884 5881 5882 5882 5884 5882 5882 5882 5883 5884 5885 5888 5889 5889 5890 5890 5891 5893 5896 5897 5900 5903 5905 5907 5909 5910 5912 5914 5914 5913
5884 5885 5888 5888 5888 5887 5886 5889 5887 5886 5887 5887 5884 5883 5881 5882 5881 5879 5879 5881 5880 5882 5881 5883 5884 5883 5888 5888 5888 5888 5890 5891 5894 5895 5897 5900 5902 5904 5905 5907 5909 5910 5911 5912
5881 5881 5884 5887 5886 5886 5884 5886 5886 5883 5882 5882 5882 5882 5880 5875 5873 5875 5876 5878 5878 5879 5882 5883 5883 5883 5885 5889 5886 5887 5888 5890 5892 5893 5894 5896 5898 5900 5902 5904 5906 5907 5909 5912
5880 5880 5882 5882 5884 5884 5884 5884 5886 5885 5886 5881 5881 5880 5878 5873 5869 5880 5878 5877 5875 5876 5878 5880 5882 5882 5884 5885 5885 5886 5888 5888 5890 5891 5892 5894 5896 5897 5899 5900 5901 5903 5905 5908
5879 5880 5879 5883 5881 5883 5884 5884 5884 5884 5884 5883 5878 5877 5870 5874 5874 5875 5878 5876 5877 5877 5877 5878 5880 5882 5882 5882 5886 5886 5886 5886 5888 5890 5891 5893 5895 5896 5897 5898 5899 5900 5902 5906
5879 5878 5879 5881 5880 5882 5883 5881 5883 5882 5884 5883 5880 5875 5876 5877 5877 5877 5878 5875 5876 5877 5877 5877 5878 5880 5882 5884 5884 5885 5885 5885 5887 5888 5889 5891 5892 5894 5895 5896 5896 5897 5897 5900
5875 5874 5875 5878 5879 5883 5881 5882 5881 5881 5877 5880 5876 5876 5875 5869 5873 5870 5874 5873 5876 5876 5876 5876 5878 5881 5881 5882 5882 5883 5885 5885 5886 5887 5888 5889 5889 5892 5893 5893 5893 5894 5896 5897
5867 5869 5871 5873 5877 5874 5876 5876 5875 5873 5873 5876 5874 5874 5869 5868 5870 5871 5871 5869 5875 5874 5878 5879 5877 5878 5879 5881 5881 5882 5883 5885 5885 5886 5887 5888 5888 5890 5891 5891 5891 5891 5893 5894
5863 5866 5867 5868 5867 5865 5866 5869 5871 5869 5872 5874 5870 5867 5867 5865 5865 5861 5860 5854 5873 5870 5870 5875 5877 5878 5879 5878 5879 5880 5881 5882 5883 5884 5885 5885 5886 5888 5889 5888 5888 5888 5889 5889
5856 5857 5860 5861 5861 5859 5856 5860 5864 5867 5867 5866 5866 5863 5863 5853 5864 5859 5859 5860 5867 5870 5870 5871 5875 5877 5878 5878 5878 5878 5880 5881 5881 5882 5883 5883 5884 5885 5885 5885 5885 5885 5885 5885
5848 5849 5850 5852 5856 5856 5853 5851 5857 5859 5861 5860 5858 5860 5852 5857 5861 5863 5862 5862 5866 5870 5868 5867 5872 5874 5875 5876 5876 5877 5878 5878 5879 5879 5881 5882 5882 5882 5882 5882 5881 5881 5880 5880
5841 5842 5843 5845 5847 5848 5847 5849 5850 5851 5850 5846 5853 5854 5851 5851 5850 5857 5856 5857 5858 5858 5859 5865 5867 5869 5871 5872 5873 5874 5874 5874 5876 5876 5877 5878 5877 5877 5877 5877 5877 5877 5876 5875
5834 5834 5835 5837 5838 5837 5846 5845 5843 5840 5838 5844 5844 5844 5846 5844 5846 5845 5852 5853 5856 5859 5859 5856 5866 5867 5868 5868 5868 5869 5871 5871 5871 5872 5873 5872 5871 5871 5871 5871 5871 5870 5869 5869
5826 5827 5826 5825 5828 5830 5835 5838 5837 5836 5832 5833 5833 5840 5840 5842 5839 5843 5848 5849 5852 5854 5855 5854 5857 5861 5862 5864 5866 5865 5866 5867 5867 5867 5867 5867 5867 5867 5867 5866 5864 5863 5862 5861
5816 5816 5816 5817 5816 5819 5827 5824 5826 5828 5827 5823 5825 5833 5839 5838 5834 5832 5832 5843 5849 5847 5846 5843 5844 5856 5857 5859 5860 5861 5862 5862 5862 5862 5862 5862 5861 5861 5860 5860 5859 5858 5857 5855
5806 5806 5805 5806 5806 5807 5809 5814 5817 5820 5819 5811 5812 5817 5824 5827 5828 5826 5831 5828 5821 5827 5827 5823 5823 5845 5851 5852 5854 5855 5856 5857 5857 5857 5856 5858 5856 5856 5855 5853 5851 5850 5850 5848
5798 5796 5795 5795 5795 5795 5798 5802 5806 5806 5802 5805 5774 5793 5810 5814 5814 5817 5822 5821 5826 5829 5815 5823 5820 5832 5841 5843 5845 5848 5850 5852 5852 5853 5853 5852 5851 5851 5848 5846 5843 5841 5839 5838
5786 5786 5787 5787 5786 5784 5788 5789 5793 5794 5793 5794 5782 5799 5804 5807 5808 5807 5810 5815 5811 5808 5810 5800 5803 5835 5834 5833 5838 5838 5843 5845 5847 5846 5846 5846 5844 5841 5840 5838 5836 5834 5831 5828
5777 5776 5776 5776 5775 5772 5771 5777 5781 5782 5782 5786 5786 5791 5794 5796 5799 5798 5800 5808 5809 5806 5798 5812 5819 5823 5822 5826 5829 5833 5835 5838 5838 5838 5837 5836 5835 5833 5832 5829 5827 5824 5820 5818
5770 5768 5764 5763 5761 5761 5759 5759 5765 5767 5767 5772 5775 5778 5784 5787 5791 5788 5788 5774 5798 5805 5807 5806 5811 5815 5816 5821 5824 5828 5828 5828 5828 5828 5829 5828 5827 5826 5823 5821 5817 5815 5810 5808
5758 5755 5755 5752 5752 5751 5751 5749 5749 5754 5756 5757 5762 5765 5771 5777 5782 5780 5780 5782 5789 5793 5799 5800 5802 5803 5810 5813 5816 5818 5818 5819 5820 5821 5820 5819 5819 5817 5814 5811 5807 5804 5800 5796